Weather History for Gwinn, MI

Change the Weather History Date:

Tuesday, February 12, 2013

  Actual Average (KESC) Record (KESC)
Temperature  
Mean Temperature 19 °F -  
Max Temperature 24 °F 25 °F 40 °F (1976)
Min Temperature 15 °F 7 °F -18 °F (2000)
Degree Days  
Heating Degree Days 46    
Moisture  
Dew Point 16 °F    
Average Humidity 84    
Maximum Humidity 93    
Minimum Humidity 68    
Precipitation  
Precipitation 0.00 in - - ()
Sea Level Pressure  
Sea Level Pressure 29.79 in    
Wind  
Wind Speed 5 mph (West)    
Max Wind Speed 13 mph    
Max Gust Speed 18 mph    
Visibility 8 miles    
Events Snow    
Averages and records for this station are not official NWS values.
T = Trace of Precipitation, MM = Missing Value Source: NWS Daily Summary

Daily Weather History Graph

Daily Weather History Graph

Search for Another Location

Airport:

Trip Planner

Search our weather history database for the weather conditions in past years. The results will help you decide how hot, cold, wet, or windy it might be!

Date:

Astronomy

Feb. 12, 2013 Rise Set
Actual Time 7:57 AM EST 6:11 PM EST
Civil Twilight 7:25 AM EST 6:42 PM EST
Nautical Twilight 6:50 AM EST 7:17 PM EST
Astronomical Twilight 6:15 AM EST 7:52 PM EST
Moon 8:42 AM EST (2/12) 9:25 PM EST (2/12)
Length of Visible Light 11h 16m
Length of Day
10h 14m
Waxing Crescent, 7% of the Moon is Illuminated
Feb 12
Waxing Crescent
Feb 17
First Quarter
Feb 25
Full
Mar 4
Last Quarter
Mar 11
New

Hourly Weather History & Observations

Time (EST) Temp. Windchill Dew Point Humidity Pressure Visibility Wind Dir Wind Speed Gust Speed Precip Events Conditions
12:17 AM 18.3 °F 13.1 °F 15.4 °F 89% 29.76 in 4.0 mi WNW 3.5 mph - N/A Snow Light Snow
12:36 AM 18.3 °F 13.1 °F 15.4 °F 89% 29.77 in 4.0 mi WNW 3.5 mph - N/A Snow Light Snow
12:57 AM 18.7 °F - 15.8 °F 89% 29.77 in 1.5 mi Calm Calm - N/A Snow Light Snow
1:17 AM 18.9 °F - 16.2 °F 89% 29.78 in 1.5 mi Calm Calm - N/A Snow Light Snow
1:36 AM 19.2 °F - 16.5 °F 89% 29.79 in 2.5 mi Calm Calm - N/A Snow Light Snow
1:57 AM 20.7 °F 11.9 °F 17.1 °F 86% 29.79 in 7.0 mi NW 6.9 mph - N/A Snow Light Snow
2:37 AM 21.6 °F 9.3 °F 16.7 °F 82% 29.80 in 10.0 mi NW 12.7 mph - N/A Snow Light Snow
2:57 AM 21.2 °F 10.1 °F 16.3 °F 82% 29.80 in 10.0 mi NW 10.4 mph 18.4 mph N/A   Overcast
3:16 AM 21.2 °F 9.5 °F 16.3 °F 82% 29.81 in 10.0 mi NW 11.5 mph - N/A Snow Light Snow
3:37 AM 21.0 °F 10.6 °F 16.2 °F 81% 29.82 in 7.0 mi NNW 9.2 mph - N/A Snow Light Snow
3:57 AM 21.0 °F 9.3 °F 16.2 °F 81% 29.82 in 7.0 mi NNW 11.5 mph - N/A Snow Light Snow
4:16 AM 20.7 °F 10.2 °F 15.8 °F 81% 29.81 in 7.0 mi NNW 9.2 mph - N/A Snow Light Snow
4:37 AM 20.5 °F 12.8 °F 15.8 °F 82% 29.83 in 7.0 mi NW 5.8 mph - N/A Snow Light Snow
4:56 AM 20.1 °F 15.2 °F 15.8 °F 83% 29.83 in 10.0 mi NW 3.5 mph - N/A   Overcast
5:17 AM 19.4 °F 11.5 °F 15.4 °F 85% 29.83 in 10.0 mi NW 5.8 mph - N/A Snow Light Snow
5:56 AM 17.1 °F - 14.5 °F 90% 29.84 in 10.0 mi Calm Calm - N/A   Scattered Clouds
6:50 AM 15.8 °F - 14.0 °F 93% 29.86 in 4.0 mi Calm Calm - N/A Snow Light Snow
7:50 AM 17.6 °F - 14.0 °F 86% 29.87 in 7.0 mi Calm Calm - N/A Snow Light Snow
8:50 AM 17.6 °F 10.7 °F 14.0 °F 86% 29.89 in 4.0 mi WNW 4.6 mph - N/A Snow Light Snow
10:50 AM 21.2 °F 14.9 °F 15.8 °F 80% 29.87 in 7.0 mi West 4.6 mph - N/A Snow Light Snow
11:50 AM 23.0 °F 15.8 °F 15.8 °F 74% 29.87 in 10.0 mi West 5.8 mph - N/A Snow Light Snow
12:50 PM 23.0 °F 12.4 °F 14.0 °F 68% 29.85 in 10.0 mi West 10.4 mph - N/A   Overcast
1:50 PM 23.0 °F 13.9 °F 14.0 °F 68% 29.82 in 10.0 mi WSW 8.1 mph - N/A Snow Light Snow
4:50 PM 23.0 °F 11.1 °F 15.8 °F 74% 29.77 in 10.0 mi SW 12.7 mph - N/A   Mostly Cloudy
5:50 PM 23.0 °F 13.1 °F 15.8 °F 74% 29.77 in 10.0 mi WSW 9.2 mph - N/A   Scattered Clouds
6:50 PM 21.2 °F 11.7 °F 15.8 °F 80% 29.77 in 10.0 mi SW 8.1 mph - N/A   Scattered Clouds
7:50 PM 19.4 °F 8.6 °F 15.8 °F 86% 29.77 in 10.0 mi SW 9.2 mph - N/A   Mostly Cloudy
8:50 PM 21.2 °F 10.1 °F 17.6 °F 86% 29.75 in 10.0 mi SW 10.4 mph - N/A   Overcast
9:50 PM 21.2 °F 10.9 °F 17.6 °F 86% 29.74 in 10.0 mi WSW 9.2 mph - N/A   Overcast
10:16 PM 20.8 °F 12.1 °F 17.4 °F 87% 29.73 in 10.0 mi WSW 6.9 mph - N/A   Overcast
10:37 PM 20.1 °F 12.3 °F 17.1 °F 88% 29.72 in 10.0 mi WSW 5.8 mph - N/A   Mostly Cloudy
10:57 PM 20.1 °F 12.3 °F 17.1 °F 88% 29.72 in 10.0 mi WSW 5.8 mph - N/A   Overcast
11:17 PM 20.3 °F 11.5 °F 17.2 °F 88% 29.71 in 10.0 mi SW 6.9 mph - N/A   Overcast
11:37 PM 19.8 °F 11.9 °F 16.9 °F 89% 29.71 in 10.0 mi SW 5.8 mph - N/A   Mostly Cloudy
11:56 PM 19.0 °F 11.1 °F 16.5 °F 90% 29.70 in 10.0 mi SSW 5.8 mph - N/A   Scattered Clouds